Tracking 29892 objects as of 21-Nov-2024
HD Live streaming from Space Station
objects crossing your sky now

SL-14 R/B

Track SL-14 R/B now!
10-day predictions


NORAD ID: 16987
Int'l Code: 1986-074B
Perigee: 610.3 km
Apogee: 633.5 km
Inclination: 82.5 °
Period: 97.0 minutes
Semi major axis: 6992 km
RCS: 4.9176 m2 (large)
Launch date: September 30, 1986
Source: Commonwealth of Independent States (former USSR) (CIS)
Launch site: PLESETSK MISSILE AND SPACE COMPLEX (PKMTR)

Note: This is a ROCKET BODY
Your satellite tracking list
Your tracking list is empty




NASA's NSSDC Master Catalog

Two Line Element Set (TLE):
1 16987U 86074B   24325.86759037  .00001150  00000-0  13301-3 0  9995
2 16987  82.5136 287.6873 0016580 321.2422  61.4115 14.84630079 39647
Source of the keplerian elements: AFSPC